Location: Holcomb Observatory
(44.4922°N, 73.1654°W)
Time: 03:58:24
(UTC-05:00)

Daily predictions for brighter satellites

Satellite Brightness Start Highest point End
(mag) Time Altitude Azimuth Time Altitude Azimuth Time Altitude Azimuth
ADEOS Rocket 4.4 02:40:45 10° NNE 02:44:26 34° NNE 02:44:26 34° NNE
Cosmos 2369 Rocket 3.9 02:59:34 29° NE 02:59:34 29° NE 03:02:13 10° NNE
Okean O Rocket 4.4 03:03:26 10° NNE 03:04:22 15° NE 03:04:22 15° NE
ATLAS 5 CENTAUR R/B 3.3 03:28:12 34° NE 03:28:12 34° NE 03:31:12 10° NE
Cosmos 1943 Rocket 2.8 03:33:34 53° ENE 03:33:34 53° ENE 03:37:56 10° NNE
MOS 1 Rocket 4.4 03:34:19 10° NNE 03:38:06 46° NNE 03:38:06 46° NNE
ADEOS II 2.4 03:42:18 10° NNE 03:47:33 62° E 03:47:40 62° ESE
CZ-4B R/B 3.4 03:44:00 10° NNE 03:49:38 70° ESE 03:50:12 65° SE
Cosmos 1140 Rocket 4.4 03:45:46 10° N 03:50:50 47° ENE 03:55:52 10° SE
Cosmos 972 4.4 04:03:12 77° ESE 04:03:17 78° ESE 04:08:36 10° NNE
Okean-O 3.9 04:02:57 10° NNE 04:07:07 38° E 04:10:30 14° SSE
Lacrosse 5 rocket 3.1 04:08:35 23° NNE 04:08:36 23° NNE 04:11:33 10° E
Cosmos 1244 Rocket 4.5 04:02:58 10° N 04:09:14 81° E 04:15:24 10° S
Resurs 1-4 Rocket 4.5 04:09:29 10° NNW 04:09:31 10° NNW 04:09:31 10° NNW
Tiangong 1 3.6 04:16:41 19° E 04:16:41 19° E 04:17:41 10° E
Lacrosse 5 2.0 04:16:33 58° NNW 04:16:33 58° NNW 04:21:27 10° NE
Okean 2 Rocket 3.7 04:13:35 10° N 04:17:54 54° ENE 04:22:13 10° SSE
CZ-2D R/B 4.5 04:17:57 10° NNW 04:17:59 10° NNW 04:17:59 10° NNW
ATLAS CENTAUR R/B 4.0 04:21:01 38° SW 04:21:26 38° SW 04:34:39 10° SSE
Cosmos 2297 Rocket 4.4 04:17:25 10° N 04:21:51 23° NE 04:26:16 10° E
Cosmos 1703 Rocket 3.4 04:22:19 88° NNW 04:22:19 88° NNW 04:26:42 10° N
Meteor 1-14 Rocket 4.2 04:18:02 10° N 04:23:54 87° E 04:29:34 10° S
Cosmos 1850 Rocket 4.4 04:23:00 10° NNW 04:28:20 63° ENE 04:33:34 10° SSE
Cosmos 2056 Rocket 4.4 04:30:06 33° NW 04:30:06 33° NW 04:34:02 10° N
CZ-4C R/B 2.1 04:27:46 43° SSW 04:29:40 85° SE 04:35:44 10° NE
Cosmos 1782 4.4 04:26:19 10° SSE 04:29:55 34° E 04:33:34 10° NNE
ADEOS Rocket 4.5 04:27:16 10° N 04:31:24 22° NW 04:31:24 22° NW
Cosmos 1656 Rocket 3.6 04:30:11 34° SSW 04:32:49 87° WNW 04:38:32 10° NNE
Cosmos 1954 Rocket 4.0 04:30:13 22° NNW 04:33:38 59° WSW 04:38:51 10° S
PAYLOAD B 4.4 04:28:52 10° N 04:34:11 48° WNW 04:34:53 45° W
IRS-1C Rocket 4.4 04:31:08 10° N 04:36:07 44° WNW 04:36:17 44° WNW
S3M 4.2 04:31:26 10° S 04:37:44 76° E 04:44:00 10° N
GEOS 3 Rocket 3.6 04:33:08 10° SSE 04:38:06 54° WSW 04:39:30 42° WNW
CZ-4B DEB 4.4 04:33:17 10° N 04:38:35 48° WNW 04:39:46 42° WSW
Meteor 1-26 Rocket 4.1 04:36:09 24° SSW 04:39:34 68° WNW 04:45:09 10° N
Cosmos 2219 3.1 04:34:27 10° NNW 04:40:09 80° WSW 04:45:47 10° SSE
USA 234 3.3 04:34:12 10° NE 04:40:44 75° SE 04:45:09 22° SW
Meteor PRIRODA 3.7 04:37:16 10° N 04:40:28 58° NNW 04:40:28 58° NNW
Cosmos 2369 Rocket 3.5 04:41:22 22° NW 04:41:22 22° NW 04:45:32 10° N
Cosmos 2227 Rocket 3.6 04:37:22 10° NNW 04:42:40 38° NE 04:47:56 10° SE
Cosmos 1420 Rocket 3.9 04:38:54 18° SSW 04:42:44 85° ESE 04:47:57 10° NNE
Meteor 1-25 Rocket 4.3 04:37:19 10° N 04:43:12 89° E 04:49:03 10° S
Okean O Rocket 3.2 04:39:57 10° N 04:41:51 20° NNW 04:41:51 20° NNW
Cosmos 1553 Rocket 4.0 04:37:32 10° S 04:43:45 86° E 04:50:07 10° N
Meteor 1-31 Rocket 2.6 04:44:27 10° N 04:48:21 77° WNW 04:50:11 30° SSW
NOAA 6 4.4 04:45:10 10° NNE 04:50:20 66° ESE 04:55:25 10° S
COSMO-SKYMED 1 3.1 04:46:24 10° SSE 04:50:40 61° ENE 04:54:58 10° N
Meteor 2-10 Rocket 3.6 04:54:31 28° SW 04:56:45 46° WNW 05:01:40 10° N
ATLAS 3B R/B 3.3 04:54:58 10° SSW 05:02:26 65° ESE 05:09:39 10° NE
Okean 1-7 3.1 05:00:19 23° SW 05:02:42 48° WNW 05:06:51 10° N
Cosmos 2221 Rocket 4.0 05:01:45 25° SW 05:03:55 42° WNW 05:08:16 10° N
ERS-2 3.4 05:01:26 10° N 05:03:55 25° NW 05:03:55 25° NW
Thor Agena Rocket 3.7 05:05:04 10° S 05:10:05 48° W 05:15:05 10° NNW
Cosmos 1452 Rocket 4.1 05:07:57 25° WSW 05:10:18 37° WNW 05:15:12 10° N
ATLAS 5 CENTAUR R/B 3.3 05:09:46 19° WNW 05:11:22 22° NNW 05:15:32 10° NNE
Cosmos 1709 Rocket 4.4 05:07:21 10° N 05:13:26 64° E 05:19:31 10° SSE
Meteor 1-10 Rocket 4.2 05:08:30 10° S 05:14:04 90° SSE 05:19:48 10° N
Cosmos 1943 Rocket 3.4 05:15:06 20° WNW 05:16:40 22° NW 05:20:59 10° N
Cosmos 1741 Rocket 4.2 05:15:45 10° NNW 05:20:47 48° WSW 05:25:49 10° S
CZ-4 R/B 4.3 05:17:35 10° NE 05:20:51 22° E 05:24:03 10° SE
Radarsat Rocket 4.3 05:16:22 10° NNE 05:23:40 87° WNW 05:30:03 10° SSW
Abrixas 3.3 05:24:13 21° NW 05:25:46 38° N 05:28:30 10° E
ADEOS II 3.4 05:23:04 10° NNW 05:26:48 20° WNW 05:28:37 17° W
Cosmos 1300 Rocket 3.8 05:25:30 10° N 05:29:57 75° E 05:34:21 10° SSE
Meteor 1-28 Rocket 3.1 05:27:15 10° S 05:30:56 65° W 05:34:41 10° NNW
Cosmos 1745 Rocket 4.2 05:26:13 10° NNW 05:32:00 44° W 05:37:44 10° SSW
Cosmos 1386 Rocket 4.5 05:26:09 10° NNW 05:32:05 58° W 05:38:04 10° S
Cosmos 2315 Rocket 4.3 05:27:25 10° S 05:33:47 78° E 05:40:08 10° N
CSL-04 Rocket 4.1 05:32:49 10° NNE 05:38:12 67° ESE 05:43:38 10° S
SKYMED 2 3.9 05:34:39 10° S 05:38:45 41° W 05:42:53 10° NNW
Cosmos 1536 3.4 05:38:34 10° N 05:42:33 62° E 05:46:32 10° SSE
Okean 3 4.4 05:38:27 10° S 05:42:38 54° E 05:46:52 10° NNE
Okean-O 3.8 05:39:55 10° NNW 05:43:23 23° WNW 05:46:50 10° WSW
Cosmos 2082 3.7 05:39:02 10° NNW 05:44:44 85° WSW 05:50:22 10° SSE
Lacrosse 5 rocket 1.0 05:44:28 10° NW 05:48:02 60° SW 05:51:35 10° SE
Meteor 1-27 Rocket 3.8 05:42:48 10° SSW 05:48:36 79° WNW 05:54:33 10° N
Cosmos 1674 Rocket 3.6 05:45:20 10° SSW 05:49:42 64° W 05:54:08 10° N
Cosmos 1378 Rocket 4.0 05:45:49 10° S 05:50:09 68° E 05:54:29 10° NNE
USA 81 4.5 05:45:43 10° SSW 05:50:38 39° WNW 05:55:35 10° N
Tiangong 1 1.2 05:48:10 13° W 05:50:41 58° S 05:53:35 10° ESE
BREEZE M DEB (TANK) 3.9 05:42:44 11° W 05:54:16 55° N 05:58:01 10° ENE
Cosmos 1606 3.6 05:53:56 10° SW 05:57:18 28° WNW 06:00:44 10° NNW
Cosmos 1602 4.1 05:54:52 10° NNW 05:58:39 45° W 06:02:25 10° SSW
Lacrosse 5 3.4 05:56:16 10° WNW 06:00:18 23° NNW 06:04:20 10° NE
PAYLOAD A 3.9 05:56:06 10° NNE 06:00:52 85° WNW 06:05:44 10° SSW
Cosmos 2369 3.7 05:56:27 10° SSW 06:02:06 83° WNW 06:07:48 10° NNE
SJ-12 4.3 05:59:08 10° NNE 06:03:15 73° ESE 06:07:22 10° S
Cosmos 1607 4.1 05:58:13 10° SW 06:04:11 55° NW 06:10:18 10° NNE
Cosmos 2297 Rocket 2.2 06:00:48 10° NNW 06:06:25 66° WSW 06:11:59 10° SSE
